Location: Gleizolles
(44.4833°N, 6.7667°E)
Time: 16:26:43
(UTC+00:00)

Transit 2A - Pass Details

Date: 29 June 2024
Orbit: 591 x 960 km, 66.7° (Epoch: 16 July)

Event Time Altitude Azimuth Distance (km) Brightness Sun altitude
Rises 23:57:12 0° 307° (NW) 3,610 9.9 -22.1°
Reaches altitude 10° 00:02:21 10° 271° (W) 2,691 8.8 -22.0°
Maximum altitude 00:03:31 11° 261° (W) 2,651 8.6 -22.0°
Enters shadow 00:04:28 10° 252° (WSW) 2,676 8.6 -22.0°
